Overview Statistics Trail Chart Weather Telemetry Raw packets
 

This is the latest recevied weather packets stored in our database for station/object W5ALL-WX. If no packets are shown the sender has not sent any weather packets the latest 10 day(s).

<< 67 68 69 70 71 72 73 >>
Time Temp. Humidity Pressure Rain* Wind** Luminosity Snow
1777518660 22.78° C 8% 1013.8 hPa 0 mm - - -
1777518360 22.78° C 8% 1013.6 hPa 0 mm - - -
1777518060 22.22° C 8% 1013.6 hPa 0 mm - - -
1777517760 22.22° C 8% 1013.4 hPa 0 mm - - -
1777517460 22.22° C 8% 1013.4 hPa 0 mm - - -
1777517160 22.22° C 7% 1013.5 hPa 0 mm - - -
1777516860 22.22° C 7% 1013.5 hPa 0 mm - - -
1777516560 21.67° C 7% 1013.5 hPa 0 mm - - -
1777516260 22.22° C 7% 1013.5 hPa 0 mm - - -
1777515960 22.22° C 6% 1013.5 hPa 0 mm - - -
1777515660 21.67° C 6% 1013.5 hPa 0 mm - - -
1777515360 21.11° C 7% 1013.4 hPa 0 mm - - -
1777515060 20.56° C 7% 1013.3 hPa 0 mm - - -
1777514760 20.56° C 7% 1013.3 hPa 0 mm - - -
1777514460 20.56° C 7% 1013.2 hPa 0 mm - - -
1777514160 21.11° C 7% 1013.2 hPa 0 mm - - -
1777513860 21.67° C 7% 1013.3 hPa 0 mm - - -
1777513565 22.22° C 6% 1013.4 hPa 0 mm - - -
1777513260 22.22° C 6% 1013.3 hPa 0 mm - - -
1777512960 22.22° C 6% 1013.4 hPa 0 mm - - -
1777512660 22.78° C 6% 1013.3 hPa 0 mm - - -
1777512360 22.78° C 6% 1013.3 hPa 0 mm - - -
1777512060 22.78° C 6% 1013.2 hPa 0 mm - - -
1777511760 22.78° C 6% 1013.3 hPa 0 mm - - -
1777511460 22.78° C 6% 1013.3 hPa 0 mm - - -

* Rain latest hour (hover to see other rain measurements)
** Current wind speed in m/s (hover to see current wind gust speed)